Location: RyutenAO
(34.8939°N, 134.0022°E)
Time: 10:18:55
(UTC+09:00)

X-37B - Pass Details

Date: 06 December 2022
Orbit: 277 x 277 km, 45.0° (Epoch: 01 November)

Event Time Altitude Azimuth Distance (km) Brightness Sun altitude
Rises 17:25:31 0° 213° (SSW) 1,897 5.1 -7.0°
Reaches altitude 10° 17:27:36 10° 198° (SSW) 1,089 3.5 -7.4°
Maximum altitude 17:29:38 23° 141° (SE) 642 1.5 -7.8°
Enters shadow 17:31:31 11° 87° (E) 1,042 2.2 -8.1°
